1998-067PP (43639 NORAD) Tracking and Keplerian Element Data

This shows tracking and keplerian element data for the satellite.

Feedback or suggestion? Click here.




ElementValue
Catalog43639
Name1998-067PP
Epoch Orbit3071
Epoch Day111.86190181
Epoch Year2019
RAAN277.0889
Inclination51.6388
Eccentricity0.0005371
Argument of Perigee240.8
Mean Anonmoly119.2455
Mean Motion15.58120035
Decay Rate0.00011077
L11 43639U 98067PP 19111.86190181 .00011077 00000-0 15064-3 0 9997
L22 43639 51.6388 277.0889 0005371 240.8000 119.2455 15.58120035 30717

Live tracking and technical data element details for 1998-067PP (NORAD 43639). 1998-067PP can be tracked NOW for your location showing map with azimuth and elevation plus other details from your city location.

Track the satellite on the map from your city or location and see movement details for azimuth, elevation, latitude, longitude, range, height, and movement on the map or in text.







IsCatalogInMostPopularTable: catalog: 43639, numindb: 117
Update: records affected: 1



GetName: 43639 1998-067PP

Hit Count: updated at: Tue, 23 Apr 2019 20:23:23 GMT